Preview of NWS' New Version of Forecast
This preview is not operational and should not be used for support decisions.

Regional Weather Roundup (RWR)

Issued by National Weather Service (NWS)

                            
000
ASUS46 KSEW 170110
RWRWA 

WASHINGTON REGIONAL WEATHER ROUNDUP
NATIONAL WEATHER SERVICE SEATTLE WA
500 PM PST SAT FEB 16 2019

NOTE:"FAIR" INDICATES FEW OR NO CLOUDS BELOW 12,000 FEET WITH NO 
SIGNIFICANT WEATHER AND/OR OBSTRUCTIONS TO VISIBILITY.

WAZ507-509-555>559-170200-
SEATTLE, TACOMA, EVERETT, AND VICINITY
  
CITY           SKY/WX    TMP DP  RH WIND       PRES   REMARKS
EVERETT        LGT RAIN  37  36  96 N6        29.85S FOG              
BOEING FIELD   CLOUDY    42  37  82 SE3       29.86R                  
RENTON         LGT RAIN  42  38  85 S5        29.86R                  
SEATAC AIRPORT LGT RAIN  41  38  89 CALM      29.85R                  
JBLM-MCCHORD   CLOUDY    40  40  99 S7        29.86R                  
PUYALLUP       CLOUDY    39  37  93 CALM      29.86R                  
BREMERTON      MIX PCPN  36  34  93 NE10      29.85R                  
JBLM-FT LEWIS  NOT AVBL                                               
TACOMA NARROWS CLOUDY    41  34  76 S8        29.85R                  
$$
 
WAZ001-503-506-510-514-515-170200-
NORTH INTERIOR
  
CITY           SKY/WX    TMP DP  RH WIND       PRES   REMARKS
BELLINGHAM     PTCLDY    41  35  79 S6        29.84R                  
FRIDAY HARBOR  CLOUDY    43  33  68 CALM      29.85R                  
EASTSOUND      CLOUDY    41  39  93 S6        29.84R                  
PORT ANGELES   CLOUDY    40  30  67 W6        29.87R                  
EDIZ HOOK      CLOUDY    42  31  67 W12       29.87R                  
PORT TOWNSEND  CLOUDY    39  37  93 W7        29.86R                  
NAS WHIDBEY    MOCLDY    43  38  82 SE6       29.89S                  
ARLINGTON      LGT RAIN  37  37 100 SE5       29.87R                  
BURLINGTON     CLOUDY   N/A N/A N/A S6        29.86R                  
$$
 
WAZ020-022-039-040-504-511-512-170200-
SOUTHWEST INTERIOR
  
CITY           SKY/WX    TMP DP  RH WIND       PRES   REMARKS
SHELTON        CLOUDY    40  31  70 SW10      29.83R                  
OLYMPIA        CLOUDY    40  33  76 SW9       29.87R                  
CHEHALIS       FAIR      41  37  87 SW6       29.89S                  
KELSO          CLOUDY    41  39  93 CALM      29.92S                  
VANCOUVER      CLOUDY    43  38  82 CALM      29.93R                  
SCAPPOOSE, OR  LGT RAIN  44  36  73 CALM      29.92S                  
PORTLAND, OR   CLOUDY    43  37  79 CALM      29.93S                  
$$
 
WAZ021-516-517-170200-
WASHINGTON COAST
  
CITY           SKY/WX    TMP DP  RH WIND       PRES   REMARKS
FORKS          MOCLDY    40  29  64 S5        29.85F                  
HOQUIAM        MOCLDY    40  35  83 W7        29.89S                  
ASTORIA, OR    LGT RAIN  39  35  86 W10       29.91R FOG              
$$
 
WAZ019-023-024-040-567>569-170200-
CASCADE MOUNTAINS AND COLUMBIA GORGE
  
CITY           SKY/WX    TMP DP  RH WIND       PRES   REMARKS
STAMPEDE PASS  FOG       29  26  89 VRB3      29.71R VSB 1/4          
TROUTDALE, OR  LGT RAIN  41  37  86 SW6       29.94R                  
HOOD RIVER, OR RAIN      36  34  93 CALM      29.88R                  
THE DALLES, OR CLOUDY    34  29  82 CALM      29.89S HAZE             
$$

WAZ026-027-041>044-520-521-170200-
EAST SLOPES
  
CITY           SKY/WX    TMP DP  RH WIND       PRES   REMARKS
OMAK           CLOUDY    33  26  75 CALM      29.84S                  
WENATCHEE      CLOUDY    31  25  78 E3        29.83S                  
ELLENSBURG     CLOUDY    31  24  75 CALM      29.80S                  
YAKIMA         CLOUDY    33  28  81 SE3       29.84S                  
SUNNYSIDE ARPT CLOUDY    34  31  89 E6        29.86                   
YAKIMA TC      LGT RAIN  32  27  80 S5        29.81S                  
$$

WAZ028-034-035-170200-
COLUMBIA BASIN
  
CITY           SKY/WX    TMP DP  RH WIND       PRES   REMARKS
EPHRATA        CLOUDY    33  26  75 CALM      29.83S                  
MOSES LAKE     CLOUDY    32  26  78 CALM      29.85R                  
PASCO          CLOUDY    35  29  78 SE5       29.89S                  
RICHLAND ARPT  CLOUDY    36  32  87 E3        29.89                   
HERMISTON, OR  MOCLDY    33  28  81 CALM      29.87R                  
$$

WAZ036>038-170200-
NORTHEAST WASHINGTON
  
CITY           SKY/WX    TMP DP  RH WIND       PRES   REMARKS
SPOKANE GEIGER CLOUDY    32  28  85 CALM      29.77S                  
SPOKANE FELTS  CLOUDY    34  30  85 CALM      29.80R                  
FAIRCHILD AFB  NOT AVBL                                               
COEURDALENE,ID CLOUDY    32  30  92 SW6       29.78S                  
DEER PARK      LGT SNOW  31  29  92 CALM      29.79R FOG              
$$

WAZ029>033-170200-
SOUTHEAST WASHINGTON
  
CITY           SKY/WX    TMP DP  RH WIND       PRES   REMARKS
PULLMAN        CLOUDY    32  31  96 W5        29.79S FOG              
LEWISTON, ID   CLOUDY    34  32  92 SE3       29.82S                  
WALLA WALLA    CLOUDY    31  28  89 S6        29.85S FOG              
PENDLETON, OR  CLOUDY    31  29  92 E7        29.82S                  
$$